TimeCDT,TemperatureF,Dew PointF,Humidity,Sea Level PressureIn,VisibilityMPH,Wind Direction,Wind SpeedMPH,Gust SpeedMPH,PrecipitationIn,Events,Conditions,WindDirDegrees,DateUTC
12:53 AM,44.1,41.0,89,30.06,10.0,South,3.5,-,N/A,,Clear,170,2013-05-07 05:53:00
1:53 AM,46.0,42.1,86,30.06,10.0,ESE,3.5,-,N/A,,Clear,120,2013-05-07 06:53:00
2:53 AM,44.1,41.0,89,30.06,10.0,Calm,Calm,-,N/A,,Clear,0,2013-05-07 07:53:00
3:53 AM,43.0,39.9,89,30.05,10.0,Calm,Calm,-,N/A,,Clear,0,2013-05-07 08:53:00
4:53 AM,42.1,39.9,92,30.05,8.0,Calm,Calm,-,N/A,,Clear,0,2013-05-07 09:53:00
5:53 AM,42.1,41.0,96,30.05,6.0,Calm,Calm,-,N/A,,Clear,0,2013-05-07 10:53:00
6:11 AM,39.2,39.2,100,30.03,1.8,Calm,Calm,-,N/A,,Clear,0,2013-05-07 11:11:00
6:15 AM,39.2,39.2,100,30.03,0.8,Calm,Calm,-,N/A,,Clear,0,2013-05-07 11:15:00
6:32 AM,37.4,37.4,100,30.04,1.5,Calm,Calm,-,N/A,,Clear,0,2013-05-07 11:32:00
6:36 AM,39.2,39.2,100,30.04,3.0,South,3.5,-,N/A,,Clear,180,2013-05-07 11:36:00
6:45 AM,41.0,39.2,93,30.04,2.5,Calm,Calm,-,N/A,,Clear,0,2013-05-07 11:45:00
6:53 AM,41.0,39.9,96,30.06,4.0,Calm,Calm,-,N/A,,Clear,0,2013-05-07 11:53:00
7:53 AM,48.0,44.1,86,30.05,6.0,SSE,4.6,-,N/A,,Clear,150,2013-05-07 12:53:00
8:53 AM,55.0,46.0,72,30.05,10.0,South,9.2,-,N/A,,Clear,170,2013-05-07 13:53:00
9:53 AM,61.0,46.9,60,30.03,10.0,SSE,12.7,-,N/A,,Clear,160,2013-05-07 14:53:00
10:53 AM,66.9,43.0,42,30.01,10.0,SSE,13.8,-,N/A,,Clear,160,2013-05-07 15:53:00
11:53 AM,68.0,42.1,39,30.01,10.0,South,13.8,-,N/A,,Mostly Cloudy,180,2013-05-07 16:53:00
12:53 PM,72.0,39.0,30,30.00,10.0,SSW,13.8,25.3,N/A,,Partly Cloudy,200,2013-05-07 17:53:00
1:53 PM,72.0,39.0,30,29.99,10.0,South,13.8,21.9,N/A,,Scattered Clouds,190,2013-05-07 18:53:00
2:53 PM,73.0,39.0,29,29.97,10.0,SSW,16.1,-,N/A,,Scattered Clouds,200,2013-05-07 19:53:00
3:53 PM,72.0,39.9,31,29.97,10.0,SSW,15.0,-,N/A,,Clear,200,2013-05-07 20:53:00
4:53 PM,70.0,39.9,33,29.95,10.0,SSW,10.4,-,N/A,,Clear,200,2013-05-07 21:53:00
5:53 PM,69.1,43.0,39,29.95,10.0,South,9.2,-,N/A,,Clear,180,2013-05-07 22:53:00
6:53 PM,64.0,42.1,45,29.95,10.0,South,11.5,-,N/A,,Partly Cloudy,180,2013-05-07 23:53:00
7:53 PM,64.0,42.1,45,29.94,10.0,WSW,5.8,29.9,N/A,,Overcast,240,2013-05-08 00:53:00
8:53 PM,62.1,46.0,56,29.95,10.0,East,5.8,-,N/A,,Overcast,90,2013-05-08 01:53:00
9:53 PM,60.1,45.0,57,29.95,10.0,East,4.6,-,N/A,,Overcast,100,2013-05-08 02:53:00
10:53 PM,59.0,45.0,60,29.95,10.0,Calm,Calm,-,N/A,,Clear,0,2013-05-08 03:53:00
11:53 PM,55.0,46.9,74,29.96,10.0,SSE,4.6,-,N/A,,Partly Cloudy,160,2013-05-08 04:53:00